International Skating Union - Official Site

ISU World Single Distance Championships 2015
February 12-15, 2015

Draw | Lap Times | Index

Referee: Jan  BOLT  (NED)
Starter: Yoshihiro  KITAZAWA  (JPN)
StartTime: EndTime: Air Temp: Ice Temp: Humidity:
21:35 21:52
Result Team Pursuit Men
Rankings as of Feb 13 2015 10:03PM
Rank: No.: Team: Nation: Time: Behind: Points:
Total 8
1 2 Netherlands (60) Sven Kramer (68) Koen Verweij (69) Douwe de Vries (65) Wouter olde Heuvel NED NED 3:41.400.5 - 17.66 - (17.6)
1.0 - 30.73 - (13.0)
1.5 - 43.95 - (13.2)
2.0 - 57.16 - (13.2)
2.5 - 1:10.63 - (13.4)
3.0 - 1:24.28 - (13.6)
3.5 - 1:37.72 - (13.4)
4.0 - 1:50.99 - (13.2)
4.5 - 2:04.58 - (13.5)
5.0 - 2:17.92 - (13.3)
5.5 - 2:31.50 - (13.5)
6.0 - 2:45.31 - (13.8)
6.5 - 2:59.16 - (13.8)
7.0 - 3:13.09 - (13.9)
7.5 - 3:27.32 - (14.2)
8.0 - 3:41.40 - (14.0)
2 6 Canada (13) Denny Morrison (6) Ted-Jan Bloemen (5) Jordan Belchos (8) Tyler Derraugh CAN CAN 3:44.090.5 - 18.00 - (18.0)
1.0 - 31.29 - (13.2)
1.5 - 44.57 - (13.2)
2.0 - 57.96 - (13.3)
2.5 - 1:11.28 - (13.3)
3.0 - 1:24.68 - (13.4)
3.5 - 1:38.44 - (13.7)
4.0 - 1:52.14 - (13.7)
4.5 - 2:06.02 - (13.8)
5.0 - 2:20.00 - (13.9)
5.5 - 2:33.86 - (13.8)
6.0 - 2:47.78 - (13.9)
6.5 - 3:01.65 - (13.8)
7.0 - 3:15.49 - (13.8)
7.5 - 3:29.72 - (14.2)
8.0 - 3:44.09 - (14.3)
2.69
3 1 Korea (52) Seung-Hoon Lee (51) Byung-Wook Ko (48) Cheol-Min Kim (49) Jin-Su Kim KOR KOR 3:44.960.5 - 17.89 - (17.8)
1.0 - 31.09 - (13.1)
1.5 - 44.48 - (13.3)
2.0 - 58.02 - (13.5)
2.5 - 1:11.79 - (13.7)
3.0 - 1:25.32 - (13.5)
3.5 - 1:38.91 - (13.5)
4.0 - 1:52.57 - (13.6)
4.5 - 2:06.36 - (13.7)
5.0 - 2:20.10 - (13.7)
5.5 - 2:34.17 - (14.0)
6.0 - 2:48.50 - (14.3)
6.5 - 3:02.87 - (14.3)
7.0 - 3:16.99 - (14.1)
7.5 - 3:30.89 - (13.8)
8.0 - 3:44.96 - (14.0)
3.56
4 5 Russia (90) Danila Semerikov (92) Danil Sinitsyn (86) Sergey Gryaztsov (89) Aleksandr Rumyantsev RUS RUS 3:46.780.5 - 18.12 - (18.1)
1.0 - 31.79 - (13.6)
1.5 - 45.40 - (13.6)
2.0 - 59.08 - (13.6)
2.5 - 1:12.80 - (13.7)
3.0 - 1:26.39 - (13.5)
3.5 - 1:40.00 - (13.6)
4.0 - 1:53.78 - (13.7)
4.5 - 2:07.66 - (13.8)
5.0 - 2:21.36 - (13.7)
5.5 - 2:35.27 - (13.9)
6.0 - 2:49.17 - (13.8)
6.5 - 3:03.38 - (14.2)
7.0 - 3:17.48 - (14.0)
7.5 - 3:32.06 - (14.5)
8.0 - 3:46.78 - (14.7)
5.38
5 4 Italy (37) Andrea Giovannini (39) Luca Stefani (40) Nicola Tumolero (36) Fabio Francolini ITA ITA 3:47.070.5 - 17.56 - (17.5)
1.0 - 30.98 - (13.4)
1.5 - 44.28 - (13.3)
2.0 - 57.75 - (13.4)
2.5 - 1:11.43 - (13.6)
3.0 - 1:25.22 - (13.7)
3.5 - 1:39.21 - (13.9)
4.0 - 1:53.12 - (13.9)
4.5 - 2:07.08 - (13.9)
5.0 - 2:20.89 - (13.8)
5.5 - 2:34.95 - (14.0)
6.0 - 2:49.27 - (14.3)
6.5 - 3:03.65 - (14.3)
7.0 - 3:17.89 - (14.2)
7.5 - 3:32.31 - (14.4)
8.0 - 3:47.07 - (14.7)
5.67
6 3 Poland (78) Zbigniew Brodka (83) Jan Szymanski (81) Konrad Niedzwiedzki (79) Roland Cieslak POL POL 3:48.940.5 - 18.43 - (18.4)
1.0 - 32.67 - (14.2)
1.5 - 46.82 - (14.1)
2.0 - 1:00.74 - (13.9)
2.5 - 1:14.69 - (13.9)
3.0 - 1:28.76 - (14.0)
3.5 - 1:42.53 - (13.7)
4.0 - 1:56.29 - (13.7)
4.5 - 2:10.37 - (14.0)
5.0 - 2:24.36 - (13.9)
5.5 - 2:38.42 - (14.0)
6.0 - 2:52.56 - (14.1)
6.5 - 3:06.29 - (13.7)
7.0 - 3:20.08 - (13.7)
7.5 - 3:34.30 - (14.2)
8.0 - 3:48.94 - (14.6)
7.54
7 7 Norway (70) Håvard Bøkko (74) Simen Spieler Nilsen (71) Fredrik van der Horst (73) Håvard Holmefjord Lorentzen NOR NOR 3:50.580.5 - 17.81 - (17.8)
1.0 - 31.34 - (13.5)
1.5 - 44.96 - (13.6)
2.0 - 58.57 - (13.6)
2.5 - 1:12.47 - (13.8)
3.0 - 1:26.27 - (13.7)
3.5 - 1:40.09 - (13.8)
4.0 - 1:54.14 - (14.0)
4.5 - 2:08.19 - (14.0)
5.0 - 2:22.68 - (14.4)
5.5 - 2:37.13 - (14.4)
6.0 - 2:51.69 - (14.5)
6.5 - 3:06.59 - (14.9)
7.0 - 3:21.23 - (14.6)
7.5 - 3:35.86 - (14.6)
8.0 - 3:50.58 - (14.7)
9.18
8 8 Germany (26) Alexej Baumgärtner (33) Marco Weber (31) Jonas Pflug (27) Patrick Beckert GER GER 3:50.760.5 - 18.16 - (18.1)
1.0 - 31.80 - (13.6)
1.5 - 45.50 - (13.6)
2.0 - 59.27 - (13.7)
2.5 - 1:13.31 - (14.0)
3.0 - 1:27.66 - (14.3)
3.5 - 1:41.65 - (13.9)
4.0 - 1:55.63 - (13.9)
4.5 - 2:09.93 - (14.3)
5.0 - 2:24.27 - (14.3)
5.5 - 2:38.67 - (14.3)
6.0 - 2:52.87 - (14.2)
6.5 - 3:07.34 - (14.4)
7.0 - 3:21.92 - (14.5)
7.5 - 3:36.34 - (14.4)
8.0 - 3:50.76 - (14.4)
9.36